When you browse on this site, cookies collect data to enhance your experience and personalize the content and advertising you see.
Visit our Privacy Policy to learn more. By continuing to use the site, you agree to this use of cookies and data.
  • In Sweden
  • List of Countries
  • For 7 days
  • Water Temperature
  • Satellite Maps
  • Weather Map
  • Weather Widgets
  • user-avatar
    Login

    Hourly Weather Parma

    Today, 25 April, Thursday

    Time Temperature Precipitation Wind Pressure Humidity
    00:00 +14°C° 0 mm 6 mps 753 mmHg 75%
    01:00 +14°C° 0 mm 5 mps 753 mmHg 73%
    02:00 +14°C° 0 mm 5 mps 752 mmHg 76%
    03:00 +13°C° 0 mm 5 mps 752 mmHg 78%
    04:00 +13°C° 0 mm 5 mps 752 mmHg 81%
    05:00 +14°C° 0 mm 5 mps 752 mmHg 78%
    06:00 +15°C° 0 mm 5 mps 752 mmHg 75%
    07:00 +16°C° 0 mm 5 mps 752 mmHg 73%
    08:00 +19°C° 0 mm 5 mps 752 mmHg 67%
    09:00 +21°C° 0 mm 4 mps 752 mmHg 60%
    10:00 +23°C° 0 mm 4 mps 752 mmHg 54%
    11:00 +23°C° 0 mm 4 mps 752 mmHg 51%
    12:00 +25°C° 0 mm 4 mps 752 mmHg 48%
    13:00 +26°C° 0 mm 4 mps 752 mmHg 45%
    14:00 +26°C° 0 mm 4 mps 752 mmHg 47%
    15:00 +25°C° 0 mm 3 mps 751 mmHg 49%
    16:00 +25°C° 0 mm 3 mps 751 mmHg 51%
    17:00 +23°C° 0 mm 2 mps 751 mmHg 54%
    18:00 +21°C° 0 mm 2 mps 751 mmHg 58%
    19:00 +20°C° 0 mm 1 mps 751 mmHg 62%
    20:00 +20°C° 0 mm 1 mps 751 mmHg 63%
    21:00 +19°C° 0 mm 2 mps 751 mmHg 63%
    22:00 +19°C° 0 mm 2 mps 752 mmHg 64%
    23:00 +18°C° 0 mm 2 mps 751 mmHg 67%

    Tomorrow, 26 April, Friday

    Time Temperature Precipitation Wind Pressure Humidity
    00:00 +17°C° 0 mm 2 mps 751 mmHg 71%
    01:00 +17°C° 0 mm 2 mps 751 mmHg 75%
    02:00 +16°C° 0 mm 2 mps 751 mmHg 76%
    03:00 +16°C° 0 mm 2 mps 751 mmHg 77%
    04:00 +15°C° 0 mm 2 mps 750 mmHg 78%
    05:00 +16°C° 0 mm 3 mps 750 mmHg 74%
    06:00 +18°C° 0 mm 3 mps 750 mmHg 70%
    07:00 +19°C° 0 mm 4 mps 749 mmHg 67%
    08:00 +21°C° 0 mm 4 mps 749 mmHg 61%
    09:00 +22°C° 0 mm 5 mps 749 mmHg 55%
    10:00 +25°C° 0 mm 5 mps 748 mmHg 50%
    11:00 +26°C° 0 mm 5 mps 748 mmHg 48%
    12:00 +26°C° 0 mm 5 mps 748 mmHg 46%
    13:00 +27°C° 0 mm 4 mps 747 mmHg 44%
    14:00 +27°C° 0 mm 4 mps 747 mmHg 43%
    15:00 +27°C° 0 mm 4 mps 747 mmHg 43%
    16:00 +27°C° 0 mm 3 mps 746 mmHg 43%
    17:00 +25°C° 0 mm 3 mps 746 mmHg 48%
    18:00 +24°C° 0 mm 2 mps 746 mmHg 53%
    19:00 +21°C° 0 mm 2 mps 746 mmHg 58%
    20:00 +20°C° 0 mm 2 mps 746 mmHg 59%
    21:00 +20°C° 0 mm 3 mps 746 mmHg 60%
    22:00 +20°C° 0 mm 3 mps 746 mmHg 61%
    23:00 +19°C° 0 mm 3 mps 746 mmHg 62%

    Day after tomorrow, 27 April, Saturday

    Time Temperature Precipitation Wind Pressure Humidity
    00:00 +18°C° 0 mm 3 mps 746 mmHg 64%
    01:00 +18°C° 0 mm 4 mps 746 mmHg 66%
    02:00 +16°C° 0 mm 5 mps 746 mmHg 74%
    03:00 +15°C° 0 mm 6 mps 747 mmHg 82%
    04:00 +15°C° 0 mm 7 mps 747 mmHg 90%
    05:00 +14°C° 0.4 mm 7 mps 748 mmHg 89%
    06:00 +14°C° 0.4 mm 7 mps 748 mmHg 88%
    07:00 +12°C° 0.4 mm 7 mps 748 mmHg 87%
    08:00 +12°C° 0.1 mm 7 mps 749 mmHg 85%
    09:00 +13°C° 0.1 mm 6 mps 749 mmHg 83%
    10:00 +14°C° 0.1 mm 6 mps 749 mmHg 81%
    11:00 +14°C° 0 mm 6 mps 750 mmHg 79%
    12:00 +14°C° 0 mm 5 mps 750 mmHg 76%
    13:00 +15°C° 0 mm 5 mps 750 mmHg 74%
    14:00 +15°C° 0 mm 5 mps 750 mmHg 73%
    15:00 +15°C° 0 mm 4 mps 750 mmHg 72%
    16:00 +15°C° 0 mm 4 mps 750 mmHg 71%
    17:00 +14°C° 0 mm 3 mps 750 mmHg 74%
    18:00 +14°C° 0 mm 2 mps 750 mmHg 77%
    19:00 +13°C° 0 mm 2 mps 750 mmHg 80%
    20:00 +13°C° 0 mm 2 mps 750 mmHg 80%
    21:00 +13°C° 0 mm 1 mps 750 mmHg 80%
    22:00 +13°C° 0 mm 1 mps 750 mmHg 80%
    23:00 +12°C° 0.1 mm 2 mps 750 mmHg 81%

    28 April, Sunday

    Time Temperature Precipitation Wind Pressure Humidity
    00:00 +12°C° 0.1 mm 2 mps 751 mmHg 82%
    01:00 +12°C° 0.1 mm 2 mps 751 mmHg 83%
    02:00 +12°C° 0.2 mm 2 mps 751 mmHg 84%
    03:00 +12°C° 0.2 mm 2 mps 751 mmHg 86%
    04:00 +12°C° 0.2 mm 2 mps 751 mmHg 88%
    05:00 +12°C° 0.4 mm 2 mps 751 mmHg 87%
    06:00 +12°C° 0.4 mm 2 mps 751 mmHg 87%
    07:00 +12°C° 0.4 mm 2 mps 752 mmHg 87%
    08:00 +12°C° 0.2 mm 3 mps 752 mmHg 84%
    09:00 +13°C° 0.2 mm 3 mps 752 mmHg 81%
    10:00 +13°C° 0.2 mm 4 mps 752 mmHg 78%
    11:00 +13°C° 0.4 mm 4 mps 752 mmHg 78%
    12:00 +13°C° 0.4 mm 4 mps 752 mmHg 78%
    13:00 +13°C° 0.4 mm 4 mps 752 mmHg 77%
    14:00 +13°C° 1.1 mm 4 mps 752 mmHg 80%
    15:00 +12°C° 1.1 mm 4 mps 752 mmHg 83%
    16:00 +12°C° 1.1 mm 3 mps 752 mmHg 86%
    17:00 +11°C° 0.7 mm 4 mps 752 mmHg 86%
    18:00 +11°C° 0.7 mm 4 mps 752 mmHg 87%
    19:00 +9°C° 0.7 mm 5 mps 752 mmHg 87%
    20:00 +9°C° 0.6 mm 5 mps 752 mmHg 89%
    21:00 +9°C° 0.6 mm 5 mps 752 mmHg 90%
    22:00 +9°C° 0.6 mm 5 mps 752 mmHg 92%
    23:00 +9°C° 0.3 mm 5 mps 752 mmHg 92%

    29 April, Monday

    Time Temperature Precipitation Wind Pressure Humidity
    00:00 +9°C° 0.3 mm 5 mps 752 mmHg 93%
    01:00 +9°C° 0.3 mm 5 mps 752 mmHg 94%
    02:00 +10°C° 1.8 mm 4 mps 752 mmHg 95%
    03:00 +10°C° 1.8 mm 4 mps 751 mmHg 95%
    04:00 +8°C° 1.8 mm 4 mps 751 mmHg 96%
    05:00 +10°C° 2 mm 4 mps 751 mmHg 96%
    06:00 +10°C° 2 mm 4 mps 751 mmHg 95%
    07:00 +10°C° 2 mm 3 mps 751 mmHg 95%
    08:00 +10°C° 0.3 mm 4 mps 752 mmHg 93%
    09:00 +10°C° 0.3 mm 5 mps 752 mmHg 91%
    10:00 +10°C° 0.3 mm 6 mps 752 mmHg 89%
    11:00 +9°C° 0.6 mm 6 mps 752 mmHg 89%
    12:00 +8°C° 0.6 mm 6 mps 752 mmHg 89%
    13:00 +8°C° 0.6 mm 6 mps 752 mmHg 89%
    14:00 +8°C° 0.6 mm 5 mps 752 mmHg 87%
    15:00 +9°C° 0.6 mm 5 mps 752 mmHg 85%
    16:00 +10°C° 0.6 mm 4 mps 752 mmHg 83%
    17:00 +10°C° 0 mm 4 mps 752 mmHg 84%
    18:00 +10°C° 0 mm 3 mps 752 mmHg 85%
    19:00 +10°C° 0 mm 3 mps 753 mmHg 85%
    20:00 +9°C° 0 mm 3 mps 753 mmHg 85%
    21:00 +9°C° 0 mm 3 mps 753 mmHg 85%
    22:00 +8°C° 0 mm 3 mps 753 mmHg 85%
    23:00 +6°C° 0 mm 4 mps 753 mmHg 83%

    30 April, Tuesday

    Time Temperature Precipitation Wind Pressure Humidity
    00:00 +6°C° 0 mm 4 mps 753 mmHg 81%
    01:00 +5°C° 0 mm 4 mps 753 mmHg 79%
    02:00 +4°C° 0 mm 4 mps 753 mmHg 80%
    03:00 +4°C° 0 mm 4 mps 754 mmHg 81%
    04:00 +3°C° 0 mm 4 mps 754 mmHg 82%
    05:00 +3°C° 0 mm 5 mps 754 mmHg 78%
    06:00 +6°C° 0 mm 5 mps 754 mmHg 75%
    07:00 +7°C° 0 mm 6 mps 754 mmHg 72%
    08:00 +8°C° 0 mm 6 mps 754 mmHg 66%
    09:00 +9°C° 0 mm 6 mps 754 mmHg 60%
    10:00 +11°C° 0 mm 7 mps 754 mmHg 54%
    11:00 +11°C° 0 mm 6 mps 754 mmHg 53%
    12:00 +13°C° 0 mm 6 mps 754 mmHg 52%
    13:00 +14°C° 0 mm 6 mps 754 mmHg 51%
    14:00 +13°C° 0 mm 5 mps 753 mmHg 53%
    15:00 +13°C° 0 mm 5 mps 753 mmHg 55%
    16:00 +13°C° 0 mm 4 mps 753 mmHg 57%
    17:00 +12°C° 0 mm 4 mps 753 mmHg 61%
    18:00 +11°C° 0 mm 3 mps 753 mmHg 64%
    19:00 +10°C° 0 mm 3 mps 753 mmHg 67%
    20:00 +9°C° 0 mm 3 mps 753 mmHg 68%
    21:00 +8°C° 0 mm 3 mps 754 mmHg 70%
    22:00 +7°C° 0 mm 3 mps 754 mmHg 71%
    23:00 +7°C° 0 mm 3 mps 754 mmHg 69%
    Show more